FW5284 Weather Reports


Display with metric or nautical units.
time (UTC)temp
F
wind
direction
speed
MPH
gust
MPH
rain 1hr
in
rain 24hr
in
rain mn
in
humidity
%
barometer
mb
20260504042004 52 25 0.0 0.0 0.00 0.00 0.00 75 979.4
20260504041511 52 23 0.0 0.0 0.00 0.00 0.00 75 979.4
20260504041004 52 26 0.0 0.0 0.00 0.00 0.00 76 979.4
20260504040506 52 25 0.0 0.0 0.00 0.00 0.00 76 979.4
20260504040015 52 23 0.0 0.0 0.00 0.00 0.00 76 979.4
20260504035505 51 23 0.0 0.0 0.00 0.00 0.00 76 979.5
20260504035007 51 25 0.0 0.0 0.00 0.00 0.00 77 979.5
20260504034535 51 24 0.0 0.0 0.00 0.00 0.00 77 979.4
20260504034006 51 25 0.0 0.0 0.00 0.00 0.00 77 979.6
20260504033507 51 25 0.0 0.0 0.00 0.00 0.00 78 979.6
20260504033006 51 25 0.0 0.0 0.00 0.00 0.00 78 979.7
20260504032503 51 25 0.0 0.0 0.00 0.00 0.00 78 979.8
20260504032003 51 23 0.0 0.0 0.00 0.00 0.00 78 979.9
20260504031508 51 25 0.0 0.0 0.00 0.00 0.00 78 979.9
20260504031003 51 22 0.0 0.0 0.00 0.00 0.00 78 979.9
20260504030506 51 25 0.0 0.0 0.00 0.00 0.00 79 979.9
20260504030025 51 25 0.0 0.0 0.00 0.00 0.00 79 979.9
20260504025507 51 23 0.0 0.0 0.00 0.00 0.00 78 979.9
20260504025007 51 24 0.0 0.0 0.00 0.00 0.00 79 980.0
20260504024505 51 25 0.0 0.0 0.00 0.00 0.00 79 980.0
20260504024003 51 25 0.0 0.0 0.00 0.00 0.00 79 980.0
20260504023503 51 23 0.0 0.0 0.00 0.00 0.00 79 979.8
20260504023004 51 25 0.0 0.0 0.00 0.00 0.00 79 979.8
20260504022503 51 23 0.0 0.0 0.00 0.00 0.00 79 979.9
20260504022003 51 25 0.0 0.0 0.00 0.00 0.00 79 979.9
20260504021508 51 24 0.0 0.0 0.00 0.00 0.00 79 979.9
20260504021003 51 25 0.0 0.0 0.00 0.00 0.00 79 979.9
20260504020505 51 23 0.0 0.0 0.00 0.00 0.00 79 979.9
20260504020012 51 25 0.0 0.0 0.00 0.00 0.00 79 980.0
20260504015504 51 23 0.0 0.0 0.00 0.00 0.00 79 980.0
20260504015004 51 25 0.0 0.0 0.00 0.00 0.00 79 979.9
20260504014519 51 23 0.0 0.0 0.00 0.00 0.00 79 980.0
20260504014009 51 25 0.0 0.0 0.00 0.00 0.00 79 980.0
20260504013507 51 25 0.0 0.0 0.00 0.00 0.00 78 980.0
20260504013019 51 25 0.0 0.0 0.00 0.00 0.00 78 980.1
20260504012504 51 23 0.0 0.0 0.00 0.00 0.00 78 980.2
20260504012003 51 25 0.0 0.0 0.00 0.00 0.00 78 980.3
20260504011504 51 23 0.0 0.0 0.00 0.00 0.00 78 980.2
20260504011003 52 25 0.0 0.0 0.00 0.00 0.00 77 980.1
20260504010504 52 23 0.0 0.0 0.00 0.00 0.00 77 980.1
20260504010009 52 25 0.0 0.0 0.00 0.00 0.00 77 980.0
20260504005504 52 25 0.0 0.0 0.00 0.00 0.00 76 980.1
20260504005004 52 25 0.0 0.0 0.00 0.00 0.00 76 980.2
20260504004512 52 26 0.0 0.0 0.00 0.00 0.00 75 980.2
20260504004004 52 25 0.0 0.0 0.00 0.00 0.00 75 980.3
20260504003508 53 25 0.0 0.0 0.00 0.00 0.00 74 980.2
20260504003019 53 25 0.0 0.0 0.00 0.00 0.00 74 980.2
20260504002505 53 23 0.0 0.0 0.00 0.00 0.00 74 980.4
20260504002008 53 25 0.0 0.0 0.00 0.00 0.00 73 980.4
20260504001524 53 25 0.0 0.0 0.00 0.00 0.00 73 980.4
20260504001004 53 26 0.0 0.0 0.00 0.00 0.00 72 980.4
20260504000505 53 25 0.0 0.0 0.00 0.00 0.00 72 980.4
20260504000007 54 25 0.0 0.0 0.00 0.00 0.00 72 980.5
20260503235504 54 25 0.0 0.0 0.00 0.00 0.00 72 980.5
20260503235004 54 26 0.0 0.0 0.00 0.00 0.00 72 980.6
20260503234512 54 26 0.0 0.0 0.00 0.00 0.00 72 980.6
20260503234005 54 26 0.0 0.0 0.00 0.00 0.00 72 980.9
20260503233504 54 27 0.0 0.0 0.00 0.00 0.00 72 980.9
20260503233016 54 27 0.0 0.0 0.00 0.00 0.00 71 981.0
20260503232505 54 26 0.0 0.0 0.00 0.00 0.00 72 981.0
20260503232006 53 23 0.0 0.0 0.00 0.00 0.00 71 981.1
20260503231521 53 27 0.0 0.0 0.00 0.00 0.00 71 981.1
20260503231007 53 26 0.0 0.0 0.00 0.00 0.00 72 981.2
20260503230509 53 25 0.0 0.0 0.00 0.00 0.00 71 981.2
20260503230022 53 27 0.0 0.0 0.00 0.00 0.00 71 981.2
20260503225509 53 26 0.0 0.0 0.00 0.00 0.00 71 981.3
20260503225004 53 27 0.0 0.0 0.00 0.00 0.00 71 981.5
20260503224508 53 24 0.0 0.0 0.00 0.00 0.00 71 981.6
20260503224004 53 25 0.0 0.0 0.00 0.00 0.00 71 981.6
20260503223503 53 26 0.0 0.0 0.00 0.00 0.00 71 981.7
20260503223022 53 26 0.0 0.0 0.00 0.00 0.00 72 981.9
20260503222505 52 27 0.0 0.0 0.00 0.00 0.00 73 982.0
20260503222006 52 26 0.0 0.0 0.00 0.00 0.00 73 982.0
20260503221518 52 27 0.0 0.0 0.00 0.00 0.00 73 982.0
20260503221010 52 27 0.0 0.0 0.00 0.00 0.00 73 982.0
20260503220507 51 26 0.0 0.0 0.00 0.00 0.00 74 982.1
20260503220029 51 25 0.0 0.0 0.00 0.00 0.00 74 982.0
20260503215508 51 27 0.0 0.0 0.00 0.00 0.00 74 982.1
20260503215012 51 26 0.0 0.0 0.00 0.00 0.00 74 982.1
20260503214523 51 25 0.0 0.0 0.00 0.00 0.00 74 982.3
20260503214009 51 27 0.0 0.0 0.00 0.00 0.00 74 982.3
20260503213506 51 27 0.0 0.0 0.00 0.00 0.00 74 982.3
20260503213009 51 26 0.0 0.0 0.00 0.00 0.00 74 982.4
20260503212503 51 27 0.0 0.0 0.00 0.00 0.00 74 982.4
20260503212012 51 27 0.0 0.0 0.00 0.00 0.00 74 982.6
20260503211521 51 29 0.0 0.0 0.00 0.00 0.00 74 982.6
20260503211006 51 28 0.0 0.0 0.00 0.00 0.00 74 982.7
20260503210508 51 30 0.0 0.0 0.00 0.00 0.00 74 982.8
20260503210020 51 32 0.0 0.0 0.00 0.00 0.00 74 982.8
20260503205508 51 29 0.0 0.0 0.00 0.00 0.00 73 982.8
20260503205006 51 26 0.0 0.0 0.00 0.00 0.00 74 982.8
20260503204526 51 29 0.0 0.0 0.00 0.00 0.00 73 982.9
20260503204011 51 31 0.0 0.0 0.00 0.00 0.00 73 983.1
20260503203507 51 31 0.0 0.0 0.00 0.00 0.00 72 983.2
20260503203026 51 31 0.0 0.0 0.00 0.00 0.00 71 983.3
20260503202512 51 33 0.0 0.0 0.00 0.00 0.00 70 983.5
20260503202013 52 32 0.0 0.0 0.00 0.00 0.00 71 983.6
20260503201514 52 31 0.0 0.0 0.00 0.00 0.00 71 983.8
20260503201003 52 27 0.0 0.0 0.00 0.00 0.00 69 983.9
20260503200505 52 32 0.0 0.0 0.00 0.00 0.00 70 984.0
20260503200020 52 36 0.0 0.0 0.00 0.00 0.00 69 984.2
20260503195507 52 33 0.0 0.0 0.00 0.00 0.00 70 984.2
20260503195007 52 34 0.0 0.0 0.00 0.00 0.00 70 984.4
20260503194524 53 34 0.0 0.0 0.00 0.00 0.00 69 984.4
20260503194006 53 34 0.0 0.0 0.00 0.00 0.00 68 984.6
20260503193511 54 30 0.0 0.0 0.00 0.00 0.00 65 984.7
20260503193024 55 32 0.0 0.0 0.00 0.00 0.00 62 984.6
20260503192506 56 31 0.0 0.0 0.00 0.00 0.00 61 984.3
20260503192009 56 29 0.0 0.0 0.00 0.00 0.00 60 984.2
20260503191525 57 27 0.0 0.0 0.00 0.00 0.00 58 984.1
20260503191013 58 29 0.0 0.0 0.00 0.00 0.00 56 983.9
20260503190509 58 27 0.0 0.0 0.00 0.00 0.00 56 983.9
20260503190014 58 25 0.0 0.0 0.00 0.00 0.00 56 983.9
20260503185509 59 16 0.0 0.0 0.00 0.00 0.00 54 983.8
20260503185005 59 5 0.0 0.0 0.00 0.00 0.00 52 983.9
20260503184527 60 360 0.0 0.0 0.00 0.00 0.00 51 983.9
20260503184006 60 360 0.0 0.0 0.00 0.00 0.00 52 983.9
20260503183508 60 352 0.0 0.0 0.00 0.00 0.00 51 984.0
20260503183004 61 352 0.0 0.0 0.00 0.00 0.00 51 983.8
20260503182505 61 354 0.0 0.0 0.00 0.00 0.00 49 983.9
20260503182004 61 340 0.0 0.0 0.00 0.00 0.00 52 983.8
20260503181506 61 342 0.0 0.0 0.00 0.00 0.00 51 984.0
20260503181003 60 345 0.0 0.0 0.00 0.00 0.00 51 984.0
20260503180503 60 345 0.0 0.0 0.00 0.00 0.00 50 984.2
20260503180009 60 345 0.0 0.0 0.00 0.00 0.00 51 984.1
20260503175502 60 345 0.0 0.0 0.00 0.00 0.00 52 984.3
20260503175002 60 345 0.0 0.0 0.00 0.00 0.00 53 984.4
20260503174510 61 340 0.0 0.0 0.00 0.00 0.00 52 984.4
20260503174004 61 340 0.0 0.0 0.00 0.00 0.00 52 984.6
20260503173502 61 342 0.0 0.0 0.00 0.00 0.00 52 984.5
20260503173002 61 342 0.0 0.0 0.00 0.00 0.00 51 984.6
20260503172502 61 342 0.0 0.0 0.00 0.00 0.00 54 984.8
20260503172003 61 341 0.0 0.0 0.00 0.00 0.00 54 984.9
20260503171510 60 340 0.0 0.0 0.00 0.00 0.00 52 985.1
20260503171003 60 342 0.0 0.0 0.00 0.00 0.00 54 985.2
20260503170505 60 342 0.0 0.0 0.00 0.00 0.00 51 985.2
20260503151003 57 320 0.0 0.0 0.00 0.00 0.00 52 986.5
20260503150506 57 309 0.0 0.0 0.00 0.00 0.00 55 986.5
20260503131005 49 306 0.0 0.0 0.00 0.00 0.00 62 987.0
20260503130506 48 306 0.0 0.0 0.00 0.00 0.00 63 986.8
20260503110503 39 302 0.0 0.0 0.00 0.00 0.00 75 986.3
20260503090503 40 302 0.0 0.0 0.00 0.00 0.00 72 986.4
20260503081503 40 302 0.0 0.0 0.00 0.00 0.00 71 986.5
20260503081002 40 302 0.0 0.0 0.00 0.00 0.00 71 986.5
20260503080503 40 302 0.0 0.0 0.00 0.00 0.00 71 986.4
20260503072503 41 302 0.0 0.0 0.00 0.00 0.00 69 986.8
20260503072008 41 302 0.0 0.0 0.00 0.00 0.00 69 986.7
20260503071505 41 302 0.0 0.0 0.00 0.00 0.00 69 986.7
20260503071004 41 302 0.0 0.0 0.00 0.00 0.00 69 986.6
20260503070503 41 302 0.0 0.0 0.00 0.00 0.00 69 986.7
20260503055003 39 302 0.0 0.0 0.00 0.00 0.00 75 987.5
20260503054504 39 302 0.0 0.0 0.00 0.00 0.00 75 987.5
20260503054004 39 302 0.0 0.0 0.00 0.00 0.00 75 987.5
20260503053504 39 302 0.0 0.0 0.00 0.00 0.00 75 987.7
20260503053006 40 302 0.0 0.0 0.00 0.00 0.00 75 987.7
20260503052504 40 302 0.0 0.0 0.00 0.00 0.00 75 987.8
20260503052005 40 302 0.0 0.0 0.00 0.00 0.00 76 987.9
20260503051509 39 302 0.0 0.0 0.00 0.00 0.00 76 987.9
20260503051010 39 302 0.0 0.0 0.00 0.00 0.00 76 987.9
20260503050505 39 302 0.0 0.0 0.00 0.00 0.00 76 988.0
20260503050015 39 302 0.0 0.0 0.00 0.00 0.00 76 987.9
20260503045507 39 302 0.0 0.0 0.00 0.00 0.00 77 988.0
20260503045005 39 302 0.0 0.0 0.00 0.00 0.00 77 988.1
20260503044521 39 302 0.0 0.0 0.00 0.00 0.00 77 988.0
20260503044003 39 302 0.0 0.0 0.00 0.00 0.00 77 988.0
20260503043505 39 302 0.0 0.0 0.00 0.00 0.00 77 988.0
20260503043006 39 302 0.0 0.0 0.00 0.00 0.00 77 988.1
20260503042504 39 302 0.0 0.0 0.00 0.00 0.00 77 988.1